User: anonymous   Login
Location: Peebles
(55.6412°N, 3.1714°W)
Time: 02:21:01
(UTC+00:00)
Language:

ERBS - Orbit

View from above orbital plane
View from above orbital plane
View from above satellite
View from above satellite

Ground track
Ground track

The orbit data is extracted from the following two-line orbital elements,

1 15354U 84108B   21333.25952228  .00013670  00000-0  20278-3 0  9995
2 15354  57.0031 285.8717 0010035  31.7405 328.4259 15.55560178 49822
Epoch (UTC): 29 November 2021 06:13:42
Eccentricity: 0.0010035
inclination: 57.0031°
perigee height: 394 km
apogee height: 407 km
right ascension of ascending node: 285.8717°
argument of perigee: 31.7405°
revolutions per day: 15.55560178
mean anomaly at epoch: 328.4259°
orbit number at epoch: 4982

The dashed part of the orbit path shows where the satellite is in the earth's shadow,  

DLR